Radiation Dose at Monitoring Post of Fukushima Daini Nuclear Power Station
Date,Time,MP-1(microSv/h),MP-2(microSv/h),MP-3(microSv/h),MP-4(microSv/h),MP-5(microSv/h),MP-6(microSv/h),MP-7(microSv/h),Wind Direction,Wind Velocity(m/s),Rain
2018/02/11,00:00,0.340,0.209,0.338,0.323,0.305,0.172,0.104,south-southwest,9.2,Yes
2018/02/11,00:10,0.339,0.207,0.339,0.324,0.306,0.172,0.103,south-southwest,9.6,Yes
2018/02/11,00:20,0.338,0.207,0.340,0.322,0.307,0.172,0.103,south-southwest,10.3,Yes
2018/02/11,00:30,0.338,0.207,0.337,0.322,0.305,0.171,0.104,south-southwest,9.2,Yes
2018/02/11,00:40,0.337,0.208,0.338,0.322,0.305,0.171,0.104,south-southwest,8.1,Yes
2018/02/11,00:50,0.339,0.205,0.338,0.322,0.305,0.171,0.102,south-southwest,7.1,No
2018/02/11,01:00,0.339,0.207,0.338,0.321,0.305,0.170,0.102,south-southwest,6.6,Yes
2018/02/11,01:10,0.338,0.206,0.337,0.321,0.305,0.171,0.102,southwest,7.0,Yes
2018/02/11,01:20,0.339,0.206,0.339,0.322,0.306,0.171,0.103,west-southwest,6.2,Yes
2018/02/11,01:30,0.339,0.207,0.336,0.321,0.304,0.171,0.103,west-southwest,7.5,Yes
2018/02/11,01:40,0.338,0.206,0.337,0.321,0.307,0.171,0.103,west,4.4,No
2018/02/11,01:50,0.339,0.206,0.337,0.322,0.304,0.171,0.103,west-southwest,3.9,Yes
2018/02/11,02:00,0.339,0.207,0.338,0.321,0.304,0.170,0.103,west-southwest,3.4,Yes
2018/02/11,02:10,0.338,0.206,0.336,0.320,0.306,0.170,0.102,west-southwest,2.1,No
2018/02/11,02:20,0.337,0.205,0.338,0.322,0.305,0.169,0.102,southwest,1.6,Yes
2018/02/11,02:30,0.339,0.206,0.337,0.321,0.304,0.170,0.102,-,CALM,Yes
2018/02/11,02:40,0.337,0.206,0.335,0.320,0.306,0.169,0.101,west-southwest,0.9,Yes
2018/02/11,02:50,0.338,0.206,0.338,0.321,0.304,0.170,0.103,northwest,1.2,Yes
2018/02/11,03:00,0.340,0.207,0.339,0.322,0.304,0.170,0.102,north,2.2,Yes
2018/02/11,03:10,0.338,0.207,0.337,0.321,0.305,0.170,0.103,north,3.1,Yes
2018/02/11,03:20,0.339,0.207,0.338,0.322,0.306,0.170,0.103,northwest,2.9,Yes
2018/02/11,03:30,0.340,0.207,0.338,0.321,0.305,0.170,0.103,northwest,1.9,Yes
2018/02/11,03:40,0.338,0.207,0.339,0.320,0.306,0.171,0.103,north,1.9,Yes
2018/02/11,03:50,0.339,0.207,0.337,0.320,0.305,0.171,0.103,east,1.8,Yes
2018/02/11,04:00,0.339,0.207,0.338,0.321,0.304,0.171,0.102,northeast,2.2,No
2018/02/11,04:10,0.337,0.208,0.339,0.321,0.305,0.170,0.102,northeast,2.1,No
2018/02/11,04:20,0.338,0.207,0.336,0.321,0.305,0.171,0.102,north,1.5,No
2018/02/11,04:30,0.339,0.206,0.337,0.321,0.303,0.170,0.102,north-northeast,1.9,No
2018/02/11,04:40,0.338,0.207,0.337,0.321,0.303,0.169,0.102,northeast,1.4,No
2018/02/11,04:50,0.337,0.207,0.336,0.320,0.304,0.170,0.102,northeast,2.0,No
2018/02/11,05:00,0.338,0.204,0.335,0.320,0.302,0.170,0.101,north-northeast,2.1,No
2018/02/11,05:10,0.338,0.205,0.337,0.322,0.303,0.170,0.102,north-northeast,3.9,No
2018/02/11,05:20,0.337,0.206,0.337,0.320,0.303,0.170,0.102,north-northeast,5.0,No
2018/02/11,05:30,0.338,0.206,0.335,0.321,0.303,0.170,0.102,north,3.9,No
2018/02/11,05:40,0.338,0.204,0.335,0.321,0.303,0.169,0.103,north-northeast,5.0,No
2018/02/11,05:50,0.338,0.205,0.337,0.321,0.304,0.170,0.101,north-northeast,5.1,No
2018/02/11,06:00,0.337,0.206,0.336,0.319,0.303,0.169,0.102,north-northeast,5.2,No
2018/02/11,06:10,0.338,0.205,0.336,0.319,0.304,0.168,0.101,north,4.4,No
2018/02/11,06:20,0.339,0.206,0.337,0.320,0.304,0.169,0.101,north-northwest,4.7,No
2018/02/11,06:30,0.337,0.206,0.336,0.320,0.303,0.168,0.102,north,3.8,No
2018/02/11,06:40,0.338,0.206,0.336,0.320,0.305,0.169,0.101,north-northwest,6.2,No
2018/02/11,06:50,0.338,0.205,0.336,0.319,0.302,0.169,0.101,north-northwest,6.6,No
2018/02/11,07:00,0.338,0.207,0.336,0.319,0.303,0.169,0.102,north,6.8,No
2018/02/11,07:10,0.337,0.204,0.336,0.319,0.303,0.170,0.101,north,6.3,No
2018/02/11,07:20,0.337,0.205,0.336,0.320,0.305,0.168,0.101,north,5.5,No
2018/02/11,07:30,0.338,0.205,0.336,0.321,0.303,0.169,0.101,north,4.7,No
2018/02/11,07:40,0.335,0.205,0.336,0.320,0.303,0.170,0.101,north-northeast,5.4,No
2018/02/11,07:50,0.338,0.205,0.337,0.319,0.303,0.169,0.101,north,8.3,No
2018/02/11,08:00,0.339,0.206,0.336,0.320,0.303,0.170,0.101,north,6.3,No
2018/02/11,08:10,0.339,0.205,0.336,0.319,0.302,0.169,0.101,north-northeast,6.2,No
2018/02/11,08:20,0.339,0.205,0.336,0.319,0.304,0.168,0.101,north,6.5,No
2018/02/11,08:30,0.338,0.206,0.336,0.320,0.303,0.169,0.101,north,5.0,No
2018/02/11,08:40,0.337,0.205,0.337,0.321,0.303,0.169,0.101,north,3.5,No
2018/02/11,08:50,0.337,0.205,0.337,0.320,0.304,0.169,0.100,north,4.8,No
2018/02/11,09:00,0.340,0.206,0.336,0.320,0.303,0.169,0.101,northwest,2.9,No
2018/02/11,09:10,0.338,0.206,0.338,0.320,0.304,0.168,0.101,northwest,5.9,No
2018/02/11,09:20,0.338,0.204,0.336,0.318,0.304,0.169,0.101,north-northwest,3.4,No
2018/02/11,09:30,0.338,0.205,0.336,0.320,0.302,0.169,0.100,northwest,4.0,No
2018/02/11,09:40,0.337,0.204,0.338,0.317,0.304,0.168,0.101,north-northwest,7.3,No
2018/02/11,09:50,0.337,0.206,0.336,0.319,0.304,0.168,0.100,northwest,6.0,No
2018/02/11,10:00,0.338,0.205,0.336,0.322,0.303,0.169,0.101,northwest,7.4,No
2018/02/11,10:10,0.337,0.205,0.338,0.320,0.305,0.170,0.101,northwest,8.5,No
2018/02/11,10:20,0.339,0.206,0.336,0.321,0.303,0.169,0.102,northwest,7.3,No
2018/02/11,10:30,0.335,0.206,0.336,0.319,0.304,0.169,0.100,west-northwest,9.2,No
2018/02/11,10:40,0.337,0.205,0.337,0.319,0.304,0.169,0.101,west-northwest,9.2,No
2018/02/11,10:50,0.338,0.206,0.336,0.319,0.304,0.169,0.102,west,7.0,No
2018/02/11,11:00,0.336,0.205,0.336,0.319,0.303,0.169,0.101,west-northwest,7.5,No
2018/02/11,11:10,0.338,0.206,0.338,0.320,0.304,0.169,0.101,west-northwest,10.6,No
2018/02/11,11:20,0.336,0.206,0.336,0.319,0.303,0.170,0.101,west-northwest,11.4,No
2018/02/11,11:30,0.337,0.206,0.336,0.320,0.303,0.171,0.101,west,6.1,No
2018/02/11,11:40,0.337,0.206,0.338,0.320,0.306,0.170,0.101,west,11.2,No
2018/02/11,11:50,0.338,0.206,0.337,0.321,0.303,0.168,0.101,west-northwest,10.9,No
2018/02/11,12:00,0.336,0.205,0.335,0.320,0.304,0.171,0.101,west-northwest,13.3,No
2018/02/11,12:10,0.339,0.205,0.337,0.321,0.303,0.170,0.101,west-northwest,12.3,No
2018/02/11,12:20,0.337,0.205,0.338,0.321,0.305,0.171,0.100,west-northwest,12.0,No
2018/02/11,12:30,0.339,0.206,0.338,0.321,0.306,0.170,0.101,west-northwest,10.9,No
2018/02/11,12:40,0.338,0.205,0.337,0.320,0.304,0.170,0.101,west-northwest,9.3,No
2018/02/11,12:50,0.338,0.206,0.339,0.320,0.306,0.169,0.101,west,14.5,No
2018/02/11,13:00,0.340,0.205,0.336,0.320,0.305,0.170,0.102,west-northwest,9.8,No
2018/02/11,13:10,0.338,0.206,0.337,0.321,0.307,0.169,0.101,west-northwest,14.0,No
2018/02/11,13:20,0.339,0.206,0.337,0.320,0.305,0.171,0.102,west-northwest,12.9,No
2018/02/11,13:30,0.340,0.205,0.338,0.321,0.306,0.170,0.101,northwest,14.0,No
2018/02/11,13:40,0.339,0.206,0.338,0.319,0.307,0.170,0.101,west-northwest,14.8,No
2018/02/11,13:50,0.340,0.205,0.338,0.323,0.305,0.170,0.102,west-northwest,13.7,No
2018/02/11,14:00,0.340,0.205,0.338,0.319,0.307,0.170,0.102,northwest,14.0,No
2018/02/11,14:10,0.339,0.205,0.339,0.323,0.306,0.171,0.102,west-northwest,10.9,No
2018/02/11,14:20,0.339,0.206,0.340,0.319,0.306,0.171,0.102,west-northwest,12.3,No
2018/02/11,14:30,0.340,0.206,0.340,0.321,0.305,0.170,0.101,west-northwest,13.3,No
2018/02/11,14:40,0.340,0.206,0.338,0.323,0.306,0.171,0.102,west-northwest,11.4,No
2018/02/11,14:50,0.341,0.206,0.340,0.323,0.308,0.170,0.101,west-northwest,12.6,No
2018/02/11,15:00,0.339,0.206,0.341,0.322,0.306,0.170,0.102,west-northwest,12.3,No
2018/02/11,15:10,0.342,0.207,0.339,0.322,0.307,0.170,0.102,west-northwest,12.6,No
2018/02/11,15:20,0.340,0.207,0.340,0.322,0.306,0.169,0.102,west-northwest,12.0,No
2018/02/11,15:30,0.339,0.205,0.340,0.320,0.306,0.169,0.102,west-northwest,15.5,No
2018/02/11,15:40,0.338,0.205,0.341,0.322,0.306,0.170,0.101,west-northwest,10.7,No
2018/02/11,15:50,0.341,0.206,0.341,0.322,0.306,0.170,0.102,west,14.0,No
2018/02/11,16:00,0.340,0.205,0.339,0.322,0.306,0.169,0.102,west-northwest,18.3,No
2018/02/11,16:10,0.340,0.207,0.340,0.322,0.305,0.170,0.101,-,CALM,No
2018/02/11,16:20,0.340,0.205,0.340,0.322,0.306,0.170,0.101,west-northwest,12.2,No
2018/02/11,16:30,0.341,0.205,0.340,0.323,0.306,0.170,0.102,west-northwest,15.6,No
2018/02/11,16:40,0.339,0.205,0.339,0.321,0.306,0.170,0.101,west-northwest,12.0,No
2018/02/11,16:50,0.340,0.206,0.340,0.323,0.306,0.170,0.101,west,14.7,No
2018/02/11,17:00,0.342,0.207,0.340,0.322,0.307,0.170,0.102,west-northwest,14.0,No
2018/02/11,17:10,0.342,0.207,0.341,0.324,0.307,0.171,0.102,west-northwest,14.5,No
2018/02/11,17:20,0.339,0.207,0.339,0.322,0.307,0.169,0.102,west,18.8,No
2018/02/11,17:30,0.341,0.205,0.340,0.323,0.306,0.170,0.102,west-northwest,16.2,No
2018/02/11,17:40,0.340,0.206,0.340,0.322,0.307,0.171,0.102,west-northwest,15.5,No
2018/02/11,17:50,0.340,0.207,0.340,0.323,0.308,0.170,0.101,west-northwest,13.1,No
2018/02/11,18:00,0.341,0.206,0.341,0.322,0.309,0.170,0.102,west-northwest,15.6,No
2018/02/11,18:10,0.341,0.207,0.341,0.322,0.308,0.170,0.102,west-northwest,12.6,No
2018/02/11,18:20,0.341,0.207,0.340,0.322,0.307,0.169,0.102,west,17.4,No
2018/02/11,18:30,0.341,0.206,0.340,0.322,0.305,0.170,0.102,west,17.6,No
2018/02/11,18:40,0.341,0.207,0.340,0.323,0.307,0.170,0.102,west-northwest,16.7,No
2018/02/11,18:50,0.340,0.205,0.339,0.322,0.308,0.170,0.101,west-northwest,13.4,No
2018/02/11,19:00,0.341,0.206,0.340,0.322,0.308,0.170,0.102,west-northwest,14.8,No
2018/02/11,19:10,0.341,0.206,0.341,0.324,0.308,0.169,0.102,west-northwest,13.9,No
2018/02/11,19:20,0.341,0.208,0.342,0.323,0.307,0.170,0.102,northwest,15.1,No
2018/02/11,19:30,0.341,0.207,0.343,0.322,0.308,0.170,0.102,west-northwest,15.1,No
2018/02/11,19:40,0.340,0.207,0.341,0.323,0.309,0.170,0.102,west-northwest,10.3,No
2018/02/11,19:50,0.340,0.207,0.340,0.323,0.308,0.171,0.102,west-northwest,12.3,No
2018/02/11,20:00,0.341,0.208,0.342,0.323,0.308,0.171,0.102,northwest,10.0,No
2018/02/11,20:10,0.342,0.209,0.342,0.322,0.307,0.170,0.102,northwest,9.5,No
2018/02/11,20:20,0.342,0.207,0.342,0.322,0.306,0.171,0.103,west-northwest,11.5,No
2018/02/11,20:30,0.342,0.207,0.342,0.321,0.307,0.170,0.102,northwest,7.1,No
2018/02/11,20:40,0.343,0.208,0.342,0.324,0.307,0.170,0.102,north-northwest,8.3,No
2018/02/11,20:50,0.342,0.208,0.342,0.322,0.307,0.170,0.102,north,1.5,No
2018/02/11,21:00,0.341,0.208,0.342,0.323,0.307,0.170,0.102,north,4.2,No
2018/02/11,21:10,0.340,0.208,0.341,0.322,0.306,0.170,0.102,west-northwest,3.9,No
2018/02/11,21:20,0.342,0.208,0.342,0.322,0.306,0.170,0.102,north,5.5,No
2018/02/11,21:30,0.342,0.207,0.340,0.324,0.307,0.170,0.102,north-northeast,4.3,No
2018/02/11,21:40,0.341,0.208,0.339,0.322,0.308,0.169,0.102,north-northwest,3.7,No
2018/02/11,21:50,0.341,0.208,0.339,0.322,0.306,0.170,0.102,north,3.8,No
2018/02/11,22:00,0.341,0.208,0.340,0.322,0.305,0.171,0.102,north,1.4,No
2018/02/11,22:10,0.342,0.208,0.340,0.322,0.305,0.169,0.103,west-northwest,3.1,No
2018/02/11,22:20,0.341,0.207,0.341,0.322,0.306,0.170,0.102,northwest,1.4,No
2018/02/11,22:30,0.341,0.207,0.338,0.323,0.306,0.170,0.102,north-northwest,1.7,No
2018/02/11,22:40,0.340,0.207,0.338,0.323,0.305,0.170,0.102,east-northeast,1.3,No
2018/02/11,22:50,0.340,0.207,0.340,0.322,0.305,0.170,0.101,south-southwest,1.4,No
2018/02/11,23:00,0.339,0.206,0.340,0.321,0.304,0.170,0.101,west,1.1,No
2018/02/11,23:10,0.341,0.207,0.340,0.322,0.304,0.169,0.102,west-northwest,1.4,No
2018/02/11,23:20,0.342,0.207,0.339,0.321,0.305,0.170,0.102,northwest,2.7,No
2018/02/11,23:30,0.339,0.207,0.339,0.322,0.304,0.170,0.102,west-northwest,4.5,No
2018/02/11,23:40,0.340,0.207,0.339,0.321,0.304,0.169,0.102,west-southwest,3.9,No
2018/02/11,23:50,0.339,0.206,0.340,0.320,0.304,0.170,0.102,north-northeast,0.8,No
